Weather Roundup
Issued by NWS

Home | Current Version | Previous Version | Text Only | Print | Product List | Glossary On
Versions: 1 2 3 4 5 6 7 8 9 10 11 12 13 14 15 16 17 18 19 20 21 22 23 24 25 26 27 28 29 30 31 32 33 34 35 36 37 38 39 40 41 42 43 44 45 46 47 48 49 50
000
NZUS93 KARX 270410
HRRWXR

CURRENT HOURLY OBSERVATIONS ACROSS
MUCH OF THE UPPER MISSISSIPPI VALLEY
NATIONAL WEATHER SERVICE LA CROSSE WI
1100 PM CDT TUE AUG 26 2014


...SOUTHEAST MINNESOTA...


CITY           SKY/WX    TMP DP  RH WIND       PRES   REMARKS
ROCHESTER      MOCLDY    62  56  80 CALM      30.18S
ROCHESTER/MAYO FAIR      65  55  68 CALM      30.18R
WINONA         MOCLDY    63  59  88 CALM      30.15S
AUSTIN         MOCLDY    61  57  88 CALM      30.17S
ALBERT LEA       N/A     61  59  94 CALM      30.18R
DODGE CENTER   PTCLDY    61  57  88 CALM      30.18R
PRESTON        MOCLDY    60  60  99 CALM      30.18R
OWATONNA       PTCLDY    57  55  94 CALM      30.17S
FARIBAULT      MOCLDY    63  55  77 CALM      30.17S
$$

...ELSEWHERE IN MINNESOTA...


CITY           SKY/WX    TMP DP  RH WIND       PRES   REMARKS
MINNEAPOLIS    CLOUDY    68  54  60 N3        30.17R
INTNL FALLS    MOCLDY    44  43  96 CALM      30.16R
DULUTH         MOCLDY    57  48  72 N6        30.16S
RED WING       PTCLDY    61  57  88 CALM      30.15S
REDWOOD FALLS  CLOUDY    64  57  78 N5        30.18R
MANKATO        CLOUDY    63  54  72 CALM      30.17S
WORTHINGTON    MOCLDY    59  57  94 SE3       30.20R
FAIRMONT       PTCLDY    57  54  88 CALM      30.17S
$$

...SOUTHWEST WISCONSIN...


CITY           SKY/WX    TMP DP  RH WIND       PRES   REMARKS
LA CROSSE      CLOUDY    66  59  78 N3        30.14S
PRAIRIE DU CHI CLOUDY    67  62  84 SE3       30.13S
BOSCOBEL       CLOUDY    67  61  81 CALM      30.14R
LONE ROCK      CLOUDY    70  61  73 CALM      30.14S
PLATTEVILLE    MOCLDY    65  62  89 N5        30.14S
FORT MC COY    CLOUDY    60  58  94 CALM      30.16S
CAMP DOUGLAS   CLOUDY    59  59 100 CALM      30.15R
VIROQUA        MOCLDY    63  59  88 N3        30.16S
WIS DELLS      MOCLDY    65  56  73 CALM      30.15R
$$

...ELSEWHERE IN WISCONSIN...


CITY           SKY/WX    TMP DP  RH WIND       PRES   REMARKS
MILWAUKEE      PTCLDY    67  59  75 NW3       30.12S
MADISON        PTCLDY    63  59  87 NW3       30.13S
GREEN BAY      PTCLDY    59  57  93 NW5       30.12R
EAU CLAIRE     MOCLDY    62  57  83 CALM      30.15R
BLACK RVR FLS  FAIR      58  58 100 CALM      30.14F
MEDFORD        MOCLDY    55  54  95 CALM      30.16S
WAUSAU         MOCLDY    61  55  81 NW5       30.14R
WIS RAPIDS     MOCLDY    62  56  80 NW3       30.15S
MARSHFIELD     PTCLDY    58  54  86 NW6       30.15S
RICE LAKE      CLOUDY    61  55  80 CALM      30.18R
$$

...NORTHEAST IOWA...


CITY           SKY/WX    TMP DP  RH WIND       PRES   REMARKS
WATERLOO       CLOUDY    68  63  84 NW5       30.14R
DUBUQUE        MOCLDY    67  63  87 N6        30.14R
DECORAH        CLOUDY    64  61  88 CALM      30.15R
MASON CITY     MOCLDY    63  60  90 N6        30.19R
CHARLES CITY   CLOUDY    64  61  88 N3        30.17R
OELWEIN        CLOUDY    68  63  83 CALM      30.16R
$$

...ELSEWHERE IN IOWA...


CITY           SKY/WX    TMP DP  RH WIND       PRES   REMARKS
DES MOINES     MOCLDY    73  64  73 E5        30.13R
IOWA CITY      PTCLDY    73  65  75 N6        30.12S
FORT DODGE     CLOUDY    64  61  88 N3        30.18R
MARSHALLTOWN   PTCLDY    66  62  87 NE6       30.14R
CEDAR RAPIDS   MOCLDY    71  64  78 CALM      30.11S
$$

...NORTHERN ILLINOIS...


CITY           SKY/WX    TMP DP  RH WIND       PRES   REMARKS
CHICAGO-OHARE  MOCLDY    72  64  76 N6        30.11S
DUPAGE         CLOUDY    71  65  81 N7        30.11S
CHICAGO-MIDWAY MOCLDY    73  68  84 NE6       30.11R
MOLINE         CLEAR     73  64  73 NE5       30.10S
ROCKFORD       PTCLDY    69  64  84 CALM      30.12F
STERLING       PTCLDY    70  64  83 CALM      30.11S
PEORIA         PTCLDY    80  72  76 CALM      30.08F
$$

NOTE: "FAIR" INDICATES FEW OR NO CLOUDS BELOW 12,000 FEET WITH NO
SIGNIFICANT WEATHER AND/OR OBSTRUCTIONS TO VISIBILITY. WIND
SPEEDS ARE IN MILES-PER-HOUR.



USA.gov is the U.S. government's official web portal to all federal, state and local government web resources and services.